Hourly Data Report for June 26, 2020

OTTAWA INTL A
ONTARIO
Current Station Operator: NAVCAN

45°19'00.000" N
75°40'00.000" W
114.90 m
6106001
71628
YOW

Download Data

Hourly Data (June 2020)
Hourly Data Report for June 26, 2020
TIME Temp Definition
°C
Dew Point Definition
°C
Rel Hum Definition
%
Wind Dir Definition
10's deg

Wind Spd Definition
km/h
Visibility Definition
km
Stn Press Definition
kPa
Hmdx Definition


Wind Chill Definition


Weather Definition


00:00 16.1 11.1 72 21 10 24.1 99.77     LegendNANA
01:00 15.5 11.5 77 22 11 24.1 99.77     Clear
02:00 14.4 11.3 82 17 8 24.1 99.77     LegendNANA
03:00 13.8 11.3 85 24 9 24.1 99.76     LegendNANA
04:00 13.8 11.6 87 19 12 24.1 99.78     Mainly Clear
05:00 13.7 11.4 86 19 8 24.1 99.78     LegendNANA
06:00 15.9 12.3 79 19 6 24.1 99.80     LegendNANA
07:00 17.6 12.5 72 21 13 24.1 99.80     Mostly Cloudy
08:00 19.9 12.1 60 23 15 24.1 99.81     LegendNANA
09:00 22.4 12.1 52 25 13 24.1 99.79 25   LegendNANA
10:00 23.5 10.7 44 24 17 24.1 99.73 25   Mostly Cloudy
11:00 26.2 9.4 34 27 25 24.1 99.72 27   LegendNANA
12:00 24.4 10.2 40 28 21 24.1 99.71 26   LegendNANA
13:00 23.7 11.0 44 31 17 24.1 99.69 25   Mostly Cloudy
14:00 23.5 11.8 47 27 9 24.1 99.67 26   LegendNANA
15:00 23.0 14.4 58 18 4 24.1 99.63 27   Rain
16:00 24.4 13.5 50 16 14 24.1 99.57 27   Mostly Cloudy
17:00 25.8 15.2 51 16 9 24.1 99.55 30   LegendNANA
18:00 25.4 13.7 48 17 14 24.1 99.52 29   LegendNANA
19:00 23.9 14.4 55 18 10 24.1 99.49 28   Mostly Cloudy
20:00 21.0 13.6 62 16 12 24.1 99.47     LegendNANA
21:00 20.5 13.3 63 19 11 24.1 99.49     LegendNANA
22:00 20.1 12.9 63 22 12 24.1 99.50     Mostly Cloudy
23:00 18.9 12.7 67 23 10 24.1 99.45     LegendNANA

Notes on Data Quality.

Legend

  • E = Estimated
  • M = Missing
  • NA = Not Available*
  • [empty] = Indicates an unobserved value
Date modified: